| time (UTC) | temp F | wind direction | speed MPH | gust MPH | rain 1hr in | rain 24hr in | rain mn in | humidity % | barometer mb |
| 20260508134038 | 59 | 216 | 2.0 | 0.0 | 0.00 | 0.00 | 0.00 | 60 | 1015.3 |
| 20260508133504 | 59 | 290 | 0.0 | 0.0 | 0.00 | 0.00 | 0.00 | 61 | 1015.5 |
| 20260508132930 | 59 | 289 | 1.0 | 0.0 | 0.00 | 0.00 | 0.00 | 59 | 1015.4 |
| 20260508132356 | 58 | 354 | 0.0 | 0.0 | 0.00 | 0.00 | 0.00 | 65 | 1015.5 |
| 20260508131252 | 57 | 246 | 0.0 | 0.0 | 0.00 | 0.00 | 0.00 | 70 | 1015.5 |
| 20260508130717 | 56 | 247 | 0.0 | 0.0 | 0.00 | 0.00 | 0.00 | 70 | 1015.6 |
| 20260508130143 | 56 | 226 | 0.0 | 0.0 | 0.00 | 0.00 | 0.00 | 72 | 1015.6 |
| 20260508125039 | 55 | 227 | 1.0 | 0.0 | 0.00 | 0.00 | 0.00 | 74 | 1015.5 |
| 20260508123935 | 53 | 227 | 0.0 | 0.0 | 0.00 | 0.00 | 0.00 | 79 | 1015.6 |
| 20260508122831 | 51 | 170 | 0.0 | 0.0 | 0.00 | 0.00 | 0.00 | 88 | 1015.4 |
| 20260508114957 | 44 | 170 | 0.0 | 0.0 | 0.00 | 0.00 | 0.00 | 98 | 1015.3 |
| 20260508113853 | 43 | 170 | 0.0 | 0.0 | 0.00 | 0.00 | 0.00 | 99 | 1015.3 |
| 20260508112749 | 42 | 170 | 0.0 | 0.0 | 0.00 | 0.00 | 0.00 | 10 | 1015.0 |
| 20260508111645 | 42 | 170 | 0.0 | 0.0 | 0.00 | 0.00 | 0.00 | 10 | 1014.9 |
| 20260508111111 | 42 | 170 | 0.0 | 0.0 | 0.00 | 0.00 | 0.00 | 10 | 1014.8 |
| 20260508110537 | 42 | 170 | 0.0 | 0.0 | 0.00 | 0.00 | 0.00 | 10 | 1014.7 |
| 20260508110003 | 42 | 170 | 0.0 | 0.0 | 0.00 | 0.00 | 0.00 | 10 | 1014.7 |
| 20260508104859 | 42 | 170 | 0.0 | 0.0 | 0.00 | 0.00 | 0.00 | 99 | 1014.5 |
| 20260508103754 | 42 | 170 | 0.0 | 0.0 | 0.00 | 0.00 | 0.00 | 98 | 1014.5 |
| 20260508103220 | 42 | 170 | 0.0 | 0.0 | 0.00 | 0.00 | 0.00 | 98 | 1014.4 |
| 20260508102116 | 42 | 170 | 0.0 | 0.0 | 0.00 | 0.00 | 0.00 | 97 | 1014.4 |
| 20260508101012 | 42 | 170 | 0.0 | 0.0 | 0.00 | 0.00 | 0.00 | 96 | 1014.2 |
| 20260508100438 | 42 | 170 | 0.0 | 0.0 | 0.00 | 0.00 | 0.00 | 96 | 1014.0 |
| 20260508095903 | 43 | 170 | 0.0 | 0.0 | 0.00 | 0.00 | 0.00 | 95 | 1014.0 |
| 20260508095329 | 43 | 170 | 0.0 | 0.0 | 0.00 | 0.00 | 0.00 | 94 | 1013.9 |
| 20260508094226 | 44 | 170 | 0.0 | 0.0 | 0.00 | 0.00 | 0.00 | 93 | 1013.8 |
| 20260508093651 | 44 | 170 | 0.0 | 0.0 | 0.00 | 0.00 | 0.00 | 93 | 1013.8 |
| 20260508093117 | 44 | 170 | 0.0 | 0.0 | 0.00 | 0.00 | 0.00 | 93 | 1013.9 |
| 20260508092543 | 44 | 170 | 0.0 | 0.0 | 0.00 | 0.00 | 0.00 | 92 | 1013.9 |
| 20260508091439 | 44 | 170 | 0.0 | 0.0 | 0.00 | 0.00 | 0.00 | 91 | 1013.9 |
| 20260508084705 | 45 | 170 | 0.0 | 0.0 | 0.00 | 0.00 | 0.00 | 91 | 1013.7 |
| 20260508083601 | 46 | 170 | 0.0 | 0.0 | 0.00 | 0.00 | 0.00 | 93 | 1013.6 |
| 20260508083027 | 46 | 170 | 0.0 | 0.0 | 0.00 | 0.00 | 0.00 | 93 | 1013.4 |
| 20260508082453 | 45 | 170 | 0.0 | 0.0 | 0.00 | 0.00 | 0.00 | 91 | 1013.4 |
| 20260508081919 | 45 | 170 | 0.0 | 0.0 | 0.00 | 0.00 | 0.00 | 90 | 1013.4 |
| 20260508080815 | 45 | 170 | 0.0 | 0.0 | 0.00 | 0.00 | 0.00 | 93 | 1013.4 |
| 20260508080241 | 45 | 170 | 0.0 | 0.0 | 0.00 | 0.00 | 0.00 | 93 | 1013.3 |
| 20260508075707 | 45 | 170 | 0.0 | 0.0 | 0.00 | 0.00 | 0.00 | 94 | 1013.1 |
| 20260508075133 | 44 | 170 | 0.0 | 0.0 | 0.00 | 0.00 | 0.00 | 95 | 1013.1 |
| 20260508073459 | 44 | 170 | 0.0 | 0.0 | 0.00 | 0.00 | 0.00 | 99 | 1012.8 |
| 20260508072925 | 44 | 170 | 0.0 | 0.0 | 0.00 | 0.01 | 0.00 | 10 | 1012.7 |
| 20260508072351 | 44 | 170 | 0.0 | 0.0 | 0.00 | 0.01 | 0.00 | 10 | 1012.5 |
| 20260508071817 | 44 | 170 | 0.0 | 0.0 | 0.00 | 0.01 | 0.00 | 10 | 1012.4 |
| 20260508071243 | 45 | 170 | 0.0 | 0.0 | 0.00 | 0.01 | 0.00 | 10 | 1012.4 |
| 20260508070708 | 45 | 170 | 0.0 | 0.0 | 0.00 | 0.01 | 0.00 | 10 | 1012.3 |
| 20260508070134 | 45 | 170 | 0.0 | 0.0 | 0.00 | 0.01 | 0.00 | 10 | 1012.3 |
| 20260508065601 | 45 | 170 | 0.0 | 0.0 | 0.00 | 0.01 | 0.00 | 10 | 1012.2 |
| 20260508065026 | 45 | 170 | 0.0 | 0.0 | 0.00 | 0.01 | 0.00 | 10 | 1012.2 |
| 20260508064452 | 45 | 170 | 0.0 | 0.0 | 0.00 | 0.01 | 0.00 | 10 | 1012.1 |
| 20260508063918 | 46 | 170 | 0.0 | 0.0 | 0.00 | 0.01 | 0.00 | 10 | 1012.1 |
| 20260508063344 | 46 | 170 | 0.0 | 0.0 | 0.00 | 0.01 | 0.00 | 10 | 1012.0 |
| 20260508062240 | 46 | 168 | 0.0 | 0.0 | 0.00 | 0.01 | 0.00 | 10 | 1012.0 |
| 20260508054935 | 47 | 170 | 0.0 | 0.0 | 0.00 | 0.01 | 0.00 | 10 | 1012.0 |
| 20260508053830 | 48 | 170 | 0.0 | 0.0 | 0.00 | 0.01 | 0.00 | 10 | 1011.9 |
| 20260508053256 | 48 | 170 | 0.0 | 0.0 | 0.00 | 0.01 | 0.00 | 10 | 1011.9 |
| 20260508052722 | 48 | 170 | 0.0 | 0.0 | 0.00 | 0.01 | 0.00 | 10 | 1011.9 |
| 20260508052148 | 48 | 170 | 0.0 | 0.0 | 0.00 | 0.01 | 0.00 | 10 | 1011.8 |
| 20260508051614 | 48 | 170 | 0.0 | 0.0 | 0.00 | 0.01 | 0.00 | 10 | 1011.8 |
| 20260508045940 | 49 | 170 | 0.0 | 0.0 | 0.00 | 0.01 | 0.00 | 10 | 1011.8 |
| 20260508044836 | 49 | 170 | 0.0 | 0.0 | 0.00 | 0.01 | 0.00 | 10 | 1011.6 |
| 20260508044302 | 49 | 170 | 0.0 | 0.0 | 0.00 | 0.01 | 0.00 | 10 | 1011.4 |
| 20260508043728 | 49 | 170 | 0.0 | 0.0 | 0.00 | 0.01 | 0.00 | 10 | 1011.3 |
| 20260508042623 | 49 | 170 | 0.0 | 0.0 | 0.00 | 0.01 | 0.01 | 10 | 1011.3 |
| 20260508042049 | 49 | 170 | 0.0 | 0.0 | 0.00 | 0.01 | 0.01 | 10 | 1011.3 |
| 20260508041515 | 49 | 170 | 0.0 | 0.0 | 0.00 | 0.01 | 0.01 | 10 | 1011.2 |
| 20260508040942 | 50 | 170 | 0.0 | 0.0 | 0.00 | 0.01 | 0.01 | 10 | 1011.2 |
| 20260508040407 | 50 | 170 | 0.0 | 0.0 | 0.00 | 0.01 | 0.01 | 10 | 1011.1 |
| 20260508035306 | 50 | 170 | 0.0 | 0.0 | 0.00 | 0.01 | 0.01 | 99 | 1011.0 |
| 20260508034159 | 50 | 170 | 0.0 | 0.0 | 0.00 | 0.01 | 0.01 | 99 | 1011.0 |
| 20260508033625 | 50 | 170 | 0.0 | 0.0 | 0.00 | 0.01 | 0.01 | 98 | 1010.9 |
| 20260508033051 | 50 | 170 | 0.0 | 0.0 | 0.00 | 0.01 | 0.01 | 98 | 1010.9 |
| 20260508032517 | 50 | 170 | 0.0 | 0.0 | 0.00 | 0.01 | 0.01 | 97 | 1010.9 |
| 20260508030842 | 50 | 170 | 0.0 | 0.0 | 0.00 | 0.01 | 0.01 | 96 | 1010.9 |
| 20260508025739 | 51 | 170 | 0.0 | 0.0 | 0.00 | 0.01 | 0.01 | 96 | 1010.8 |
| 20260508025204 | 51 | 170 | 0.0 | 0.0 | 0.00 | 0.01 | 0.01 | 95 | 1010.7 |
| 20260508024630 | 51 | 170 | 0.0 | 0.0 | 0.00 | 0.01 | 0.01 | 95 | 1010.8 |
| 20260508024057 | 51 | 170 | 0.0 | 0.0 | 0.00 | 0.01 | 0.01 | 95 | 1010.8 |
| 20260508023522 | 51 | 170 | 0.0 | 0.0 | 0.00 | 0.01 | 0.01 | 94 | 1010.8 |
| 20260508022948 | 51 | 170 | 0.0 | 0.0 | 0.00 | 0.01 | 0.01 | 93 | 1010.7 |
| 20260508022414 | 51 | 170 | 0.0 | 0.0 | 0.00 | 0.01 | 0.01 | 93 | 1010.7 |
| 20260508021840 | 51 | 170 | 0.0 | 0.0 | 0.00 | 0.01 | 0.01 | 92 | 1010.6 |
| 20260508020736 | 52 | 170 | 0.0 | 0.0 | 0.00 | 0.01 | 0.01 | 92 | 1010.7 |
| 20260508015102 | 52 | 170 | 0.0 | 0.0 | 0.00 | 0.01 | 0.01 | 91 | 1010.5 |
| 20260508014528 | 52 | 170 | 0.0 | 0.0 | 0.00 | 0.01 | 0.01 | 91 | 1010.6 |
| 20260508012854 | 52 | 170 | 0.0 | 0.0 | 0.00 | 0.01 | 0.01 | 90 | 1010.5 |
| 20260508011220 | 53 | 171 | 1.0 | 0.0 | 0.00 | 0.01 | 0.01 | 89 | 1010.3 |
| 20260508010646 | 53 | 170 | 1.0 | 0.0 | 0.00 | 0.01 | 0.01 | 88 | 1010.3 |
| 20260508005012 | 53 | 170 | 0.0 | 0.0 | 0.00 | 0.01 | 0.01 | 88 | 1010.0 |
| 20260508002808 | 54 | 166 | 2.0 | 0.0 | 0.00 | 0.01 | 0.01 | 87 | 1009.8 |
| 20260508002234 | 54 | 172 | 1.0 | 0.0 | 0.00 | 0.01 | 0.01 | 86 | 1009.6 |
| 20260508001700 | 54 | 177 | 1.0 | 0.0 | 0.00 | 0.01 | 0.01 | 86 | 1009.6 |
| 20260508001125 | 55 | 176 | 1.0 | 0.0 | 0.00 | 0.01 | 0.01 | 85 | 1009.6 |
| 20260508000551 | 55 | 172 | 1.0 | 0.0 | 0.00 | 0.01 | 0.01 | 85 | 1009.5 |
| 20260507235447 | 56 | 225 | 1.0 | 0.0 | 0.00 | 0.01 | 0.01 | 84 | 1009.1 |
| 20260507234343 | 56 | 176 | 1.0 | 0.0 | 0.00 | 0.01 | 0.01 | 84 | 1009.1 |
| 20260507233809 | 56 | 170 | 1.0 | 0.0 | 0.00 | 0.01 | 0.01 | 83 | 1008.9 |
| 20260507233235 | 57 | 170 | 1.0 | 0.0 | 0.00 | 0.01 | 0.01 | 83 | 1008.9 |
| 20260507232131 | 57 | 179 | 2.0 | 0.0 | 0.00 | 0.01 | 0.01 | 81 | 1008.8 |
| 20260507231557 | 57 | 171 | 1.0 | 0.0 | 0.00 | 0.01 | 0.01 | 80 | 1008.8 |
| 20260507231023 | 58 | 231 | 1.0 | 0.0 | 0.00 | 0.01 | 0.01 | 79 | 1008.7 |
| 20260507230449 | 58 | 168 | 2.0 | 0.0 | 0.00 | 0.01 | 0.01 | 78 | 1008.6 |
| 20260507225915 | 58 | 176 | 1.0 | 0.0 | 0.00 | 0.01 | 0.01 | 78 | 1008.5 |
| 20260507225341 | 58 | 238 | 1.0 | 0.0 | 0.00 | 0.01 | 0.01 | 76 | 1008.6 |
| 20260507224807 | 58 | 155 | 2.0 | 0.0 | 0.00 | 0.01 | 0.01 | 75 | 1008.4 |
| 20260507224233 | 58 | 158 | 2.0 | 0.0 | 0.00 | 0.01 | 0.01 | 74 | 1008.3 |
| 20260507223659 | 58 | 183 | 2.0 | 0.0 | 0.00 | 0.01 | 0.01 | 74 | 1008.2 |
| 20260507222555 | 59 | 161 | 1.0 | 0.0 | 0.00 | 0.01 | 0.01 | 75 | 1008.2 |
| 20260507221450 | 58 | 196 | 1.0 | 0.0 | 0.00 | 0.01 | 0.01 | 75 | 1008.3 |
| 20260507220916 | 58 | 165 | 2.0 | 0.0 | 0.00 | 0.01 | 0.01 | 74 | 1008.2 |
| 20260507220343 | 59 | 158 | 2.0 | 0.0 | 0.00 | 0.01 | 0.01 | 73 | 1008.2 |
| 20260507215808 | 59 | 197 | 2.0 | 0.0 | 0.00 | 0.01 | 0.01 | 74 | 1008.2 |
| 20260507215234 | 59 | 214 | 2.0 | 0.0 | 0.00 | 0.01 | 0.01 | 74 | 1008.2 |
| 20260507213600 | 59 | 176 | 2.0 | 0.0 | 0.00 | 0.01 | 0.01 | 73 | 1008.2 |
| 20260507212456 | 59 | 184 | 1.0 | 0.0 | 0.00 | 0.01 | 0.01 | 73 | 1008.2 |
| 20260507211352 | 59 | 156 | 2.0 | 0.0 | 0.00 | 0.01 | 0.01 | 72 | 1008.3 |
| 20260507205717 | 59 | 177 | 2.0 | 0.0 | 0.00 | 0.01 | 0.01 | 74 | 1008.3 |
| 20260507204043 | 59 | 154 | 2.0 | 0.0 | 0.00 | 0.01 | 0.01 | 73 | 1008.2 |
| 20260507202939 | 59 | 177 | 2.0 | 0.0 | 0.00 | 0.01 | 0.01 | 71 | 1008.4 |
| 20260507202405 | 59 | 177 | 2.0 | 0.0 | 0.00 | 0.01 | 0.01 | 73 | 1008.2 |
| 20260507201301 | 59 | 231 | 2.0 | 0.0 | 0.00 | 0.01 | 0.01 | 73 | 1008.2 |
| 20260507200727 | 59 | 152 | 1.0 | 0.0 | 0.00 | 0.01 | 0.01 | 72 | 1008.3 |
| 20260507195623 | 60 | 165 | 1.0 | 0.0 | 0.00 | 0.01 | 0.01 | 71 | 1008.2 |
| 20260507195049 | 60 | 206 | 3.0 | 0.0 | 0.00 | 0.01 | 0.01 | 69 | 1008.2 |
| 20260507194515 | 61 | 195 | 3.0 | 0.0 | 0.00 | 0.01 | 0.01 | 69 | 1008.1 |
| 20260507192841 | 61 | 184 | 1.0 | 0.0 | 0.00 | 0.01 | 0.01 | 65 | 1008.4 |
| 20260507191737 | 61 | 55 | 1.0 | 0.0 | 0.00 | 0.01 | 0.01 | 65 | 1008.5 |
| 20260507185003 | 60 | 212 | 2.0 | 0.0 | 0.00 | 0.01 | 0.01 | 64 | 1008.9 |
| 20260507183859 | 61 | 62 | 0.0 | 0.0 | 0.00 | 0.01 | 0.01 | 63 | 1008.9 |
| 20260507183325 | 61 | 58 | 0.0 | 0.0 | 0.00 | 0.01 | 0.01 | 62 | 1009.0 |
| 20260507182751 | 61 | 97 | 1.0 | 0.0 | 0.00 | 0.01 | 0.01 | 62 | 1009.2 |
| 20260507182216 | 61 | 59 | 0.0 | 0.0 | 0.00 | 0.01 | 0.01 | 64 | 1009.2 |
| 20260507181642 | 61 | 150 | 0.0 | 0.0 | 0.00 | 0.01 | 0.01 | 66 | 1009.5 |
| 20260507180538 | 61 | 192 | 0.0 | 0.0 | 0.00 | 0.01 | 0.01 | 64 | 1009.6 |
| 20260507180004 | 60 | 182 | 0.0 | 0.0 | 0.00 | 0.01 | 0.01 | 64 | 1009.7 |
| 20260507175430 | 60 | 93 | 1.0 | 0.0 | 0.00 | 0.01 | 0.01 | 60 | 1009.7 |
| 20260507174856 | 60 | 129 | 1.0 | 0.0 | 0.00 | 0.01 | 0.01 | 65 | 1009.8 |
| 20260507174322 | 59 | 245 | 0.0 | 0.0 | 0.00 | 0.01 | 0.01 | 65 | 1009.9 |
| 20260507173748 | 59 | 257 | 1.0 | 0.0 | 0.00 | 0.01 | 0.01 | 64 | 1009.8 |
| 20260507173214 | 59 | 59 | 1.0 | 0.0 | 0.00 | 0.01 | 0.01 | 64 | 1010.0 |
| 20260507171010 | 57 | 72 | 0.0 | 0.0 | 0.00 | 0.01 | 0.01 | 71 | 1010.5 |
| 20260507165336 | 56 | 126 | 0.0 | 0.0 | 0.00 | 0.01 | 0.01 | 71 | 1010.8 |
| 20260507164802 | 56 | 125 | 0.0 | 0.0 | 0.00 | 0.01 | 0.01 | 70 | 1010.9 |
| 20260507164228 | 56 | 125 | 2.0 | 0.0 | 0.00 | 0.01 | 0.01 | 68 | 1010.8 |
| 20260507163124 | 56 | 117 | 1.0 | 0.0 | 0.00 | 0.01 | 0.01 | 70 | 1010.9 |
| 20260507162550 | 56 | 257 | 0.0 | 0.0 | 0.00 | 0.01 | 0.01 | 70 | 1011.1 |
| 20260507161446 | 55 | 109 | 1.0 | 0.0 | 0.00 | 0.01 | 0.01 | 71 | 1011.2 |
| 20260507160912 | 55 | 19 | 1.0 | 0.0 | 0.00 | 0.01 | 0.01 | 70 | 1011.3 |
| 20260507160337 | 55 | 278 | 1.0 | 0.0 | 0.00 | 0.01 | 0.01 | 71 | 1011.3 |
| 20260507155804 | 55 | 94 | 1.0 | 0.0 | 0.00 | 0.01 | 0.01 | 70 | 1011.4 |
| 20260507154700 | 55 | 131 | 0.0 | 0.0 | 0.00 | 0.01 | 0.01 | 76 | 1011.3 |
| 20260507154125 | 55 | 100 | 0.0 | 0.0 | 0.00 | 0.01 | 0.01 | 80 | 1011.4 |
| 20260507153551 | 55 | 99 | 0.0 | 0.0 | 0.00 | 0.01 | 0.01 | 78 | 1011.3 |
| 20260507153017 | 54 | 99 | 0.0 | 0.0 | 0.00 | 0.07 | 0.01 | 78 | 1011.5 |
| 20260507152443 | 54 | 99 | 0.0 | 0.0 | 0.00 | 0.07 | 0.01 | 78 | 1011.6 |
| 20260507151909 | 54 | 139 | 1.0 | 0.0 | 0.00 | 0.07 | 0.01 | 78 | 1011.5 |
| 20260507151335 | 54 | 84 | 0.0 | 0.0 | 0.00 | 0.07 | 0.01 | 82 | 1011.7 |
| 20260507150801 | 54 | 84 | 0.0 | 0.0 | 0.00 | 0.07 | 0.01 | 80 | 1011.6 |
| 20260507145657 | 54 | 110 | 0.0 | 0.0 | 0.00 | 0.07 | 0.01 | 84 | 1011.8 |
| 20260507145123 | 53 | 110 | 0.0 | 0.0 | 0.00 | 0.07 | 0.01 | 84 | 1011.8 |
| 20260507144019 | 53 | 110 | 0.0 | 0.0 | 0.00 | 0.07 | 0.01 | 85 | 1012.0 |
| 20260507143445 | 53 | 110 | 0.0 | 0.0 | 0.00 | 0.07 | 0.01 | 86 | 1012.1 |
| 20260507142341 | 53 | 110 | 0.0 | 0.0 | 0.00 | 0.17 | 0.01 | 85 | 1012.0 |
| 20260507141807 | 52 | 110 | 0.0 | 0.0 | 0.00 | 0.17 | 0.01 | 86 | 1012.1 |
| 20260507141233 | 52 | 110 | 0.0 | 0.0 | 0.00 | 0.17 | 0.01 | 86 | 1012.2 |
| 20260507140659 | 52 | 110 | 0.0 | 0.0 | 0.00 | 0.17 | 0.01 | 86 | 1012.3 |
| 20260507140125 | 52 | 110 | 0.0 | 0.0 | 0.00 | 0.17 | 0.01 | 84 | 1012.2 |
| 20260507135550 | 52 | 110 | 0.0 | 0.0 | 0.00 | 0.17 | 0.01 | 83 | 1012.3 |